TimeCDT,TemperatureF,Dew PointF,Humidity,Sea Level PressureIn,VisibilityMPH,Wind Direction,Wind SpeedMPH,Gust SpeedMPH,PrecipitationIn,Events,Conditions,WindDirDegrees,DateUTC
12:15 AM,64.4,62.6,94,30.09,10.0,WSW,6.9,-,N/A,,Scattered Clouds,250,2013-07-26 05:15:00
12:35 AM,64.4,62.6,94,30.08,10.0,West,6.9,-,N/A,,Clear,280,2013-07-26 05:35:00
12:55 AM,64.4,60.8,88,30.07,10.0,WNW,6.9,-,N/A,,Clear,290,2013-07-26 05:55:00
1:15 AM,64.4,60.8,88,30.07,10.0,WNW,6.9,-,N/A,,Clear,290,2013-07-26 06:15:00
1:35 AM,64.4,60.8,88,30.07,10.0,NW,6.9,-,N/A,,Clear,320,2013-07-26 06:35:00
1:55 AM,66.2,62.6,88,30.07,10.0,NW,8.1,-,N/A,,Clear,320,2013-07-26 06:55:00
2:15 AM,66.2,62.6,88,30.07,10.0,NW,8.1,-,N/A,,Clear,320,2013-07-26 07:15:00
2:35 AM,64.4,62.6,94,30.08,10.0,NNW,9.2,-,N/A,,Clear,330,2013-07-26 07:35:00
2:55 AM,64.4,62.6,94,30.08,8.0,NNW,5.8,-,N/A,,Clear,330,2013-07-26 07:55:00
3:15 AM,64.4,62.6,94,30.09,7.0,NW,4.6,-,N/A,,Clear,310,2013-07-26 08:15:00
3:35 AM,64.4,62.6,94,30.09,7.0,NW,5.8,-,N/A,,Clear,320,2013-07-26 08:35:00
3:55 AM,64.4,62.6,94,30.09,10.0,NNW,6.9,-,N/A,,Clear,330,2013-07-26 08:55:00
4:15 AM,64.4,60.8,88,30.08,10.0,NW,6.9,-,N/A,,Clear,320,2013-07-26 09:15:00
4:35 AM,62.6,60.8,94,30.09,7.0,NW,6.9,-,N/A,,Clear,320,2013-07-26 09:35:00
4:55 AM,62.6,60.8,94,30.09,5.0,NW,8.1,-,N/A,,Clear,320,2013-07-26 09:55:00
5:15 AM,62.6,60.8,94,30.09,7.0,NNW,8.1,-,N/A,,Clear,330,2013-07-26 10:15:00
5:35 AM,60.8,59.0,94,30.09,8.0,NNW,5.8,-,N/A,,Clear,340,2013-07-26 10:35:00
5:55 AM,60.8,59.0,94,30.10,8.0,NNW,5.8,-,N/A,,Clear,340,2013-07-26 10:55:00
6:15 AM,60.8,59.0,94,30.11,7.0,NNW,5.8,-,N/A,,Clear,330,2013-07-26 11:15:00
6:35 AM,60.8,59.0,94,30.11,7.0,NNW,5.8,-,N/A,,Clear,330,2013-07-26 11:35:00
6:55 AM,60.8,59.0,94,30.13,7.0,North,9.2,-,N/A,,Clear,350,2013-07-26 11:55:00
7:15 AM,62.6,60.8,94,30.14,10.0,North,9.2,-,N/A,,Clear,350,2013-07-26 12:15:00
7:35 AM,62.6,60.8,94,30.14,10.0,North,11.5,-,N/A,,Clear,360,2013-07-26 12:35:00
7:55 AM,62.6,59.0,88,30.15,10.0,North,13.8,-,N/A,,Clear,10,2013-07-26 12:55:00
8:15 AM,62.6,57.2,82,30.15,10.0,North,16.1,-,N/A,,Clear,10,2013-07-26 13:15:00
8:35 AM,62.6,57.2,82,30.17,10.0,North,15.0,21.9,N/A,,Clear,10,2013-07-26 13:35:00
8:55 AM,64.4,57.2,77,30.18,10.0,North,17.3,-,N/A,,Clear,10,2013-07-26 13:55:00
9:15 AM,64.4,57.2,77,30.19,10.0,North,18.4,23.0,N/A,,Clear,10,2013-07-26 14:15:00
9:35 AM,64.4,55.4,73,30.20,10.0,North,18.4,-,N/A,,Clear,10,2013-07-26 14:35:00
9:55 AM,66.2,55.4,68,30.20,10.0,NNE,19.6,-,N/A,,Clear,20,2013-07-26 14:55:00
10:15 AM,66.2,55.4,68,30.21,10.0,North,16.1,-,N/A,,Clear,10,2013-07-26 15:15:00
10:35 AM,68.0,55.4,64,30.22,10.0,North,16.1,-,N/A,,Clear,10,2013-07-26 15:35:00
10:55 AM,69.8,55.4,60,30.23,10.0,North,17.3,21.9,N/A,,Clear,10,2013-07-26 15:55:00
11:15 AM,69.8,53.6,56,30.22,10.0,NNE,18.4,-,N/A,,Clear,30,2013-07-26 16:15:00
11:35 AM,69.8,53.6,56,30.22,10.0,NNE,16.1,-,N/A,,Clear,20,2013-07-26 16:35:00
11:55 AM,71.6,53.6,53,30.22,10.0,North,15.0,19.6,N/A,,Clear,10,2013-07-26 16:55:00
12:15 PM,71.6,53.6,53,30.21,10.0,North,12.7,-,N/A,,Clear,10,2013-07-26 17:15:00
12:35 PM,73.4,53.6,50,30.22,10.0,North,17.3,24.2,N/A,,Clear,10,2013-07-26 17:35:00
12:55 PM,73.4,53.6,50,30.21,10.0,NNE,16.1,19.6,N/A,,Clear,20,2013-07-26 17:55:00
1:15 PM,75.2,53.6,47,30.22,10.0,North,13.8,18.4,N/A,,Clear,10,2013-07-26 18:15:00
1:35 PM,75.2,53.6,47,30.21,10.0,North,15.0,19.6,N/A,,Clear,350,2013-07-26 18:35:00
1:55 PM,75.2,53.6,47,30.20,10.0,North,8.1,17.3,N/A,,Clear,10,2013-07-26 18:55:00
2:15 PM,75.2,53.6,47,30.19,10.0,North,9.2,-,N/A,,Clear,350,2013-07-26 19:15:00
2:35 PM,75.2,55.4,50,30.19,10.0,NNE,12.7,-,N/A,,Clear,20,2013-07-26 19:35:00
2:55 PM,77.0,53.6,44,30.18,10.0,NNE,15.0,19.6,N/A,,Clear,20,2013-07-26 19:55:00
3:15 PM,77.0,53.6,44,30.19,10.0,North,15.0,20.7,N/A,,Clear,360,2013-07-26 20:15:00
3:35 PM,77.0,53.6,44,30.18,10.0,North,12.7,18.4,N/A,,Clear,350,2013-07-26 20:35:00
3:55 PM,78.8,55.4,44,30.17,10.0,North,13.8,18.4,N/A,,Clear,10,2013-07-26 20:55:00
4:15 PM,78.8,53.6,42,30.18,10.0,North,11.5,-,N/A,,Clear,360,2013-07-26 21:15:00
4:35 PM,77.0,53.6,44,30.18,10.0,NNW,11.5,-,N/A,,Clear,330,2013-07-26 21:35:00
4:55 PM,78.8,53.6,42,30.17,10.0,NNE,11.5,-,N/A,,Clear,20,2013-07-26 21:55:00
5:15 PM,77.0,53.6,44,30.17,10.0,NNE,13.8,-,N/A,,Clear,30,2013-07-26 22:15:00
5:35 PM,77.0,51.8,41,30.17,10.0,NNE,16.1,-,N/A,,Clear,20,2013-07-26 22:35:00
5:55 PM,75.2,51.8,44,30.17,10.0,NNE,12.7,-,N/A,,Clear,20,2013-07-26 22:55:00
6:15 PM,75.2,51.8,44,30.17,10.0,North,12.7,-,N/A,,Clear,350,2013-07-26 23:15:00
6:35 PM,75.2,51.8,44,30.16,10.0,NNE,12.7,16.1,N/A,,Clear,30,2013-07-26 23:35:00
6:55 PM,73.4,51.8,47,30.16,10.0,NE,11.5,-,N/A,,Clear,50,2013-07-26 23:55:00
7:15 PM,73.4,51.8,47,30.15,10.0,NNE,12.7,-,N/A,,Clear,30,2013-07-27 00:15:00
7:35 PM,73.4,50.0,44,30.16,10.0,NNE,11.5,-,N/A,,Clear,30,2013-07-27 00:35:00
7:55 PM,71.6,51.8,50,30.16,10.0,NE,8.1,-,N/A,,Clear,40,2013-07-27 00:55:00
8:15 PM,69.8,51.8,53,30.16,10.0,ENE,6.9,-,N/A,,Clear,60,2013-07-27 01:15:00
8:35 PM,66.2,53.6,64,30.16,10.0,NE,6.9,-,N/A,,Clear,50,2013-07-27 01:35:00
8:55 PM,64.4,53.6,68,30.16,10.0,NE,6.9,-,N/A,,Clear,40,2013-07-27 01:55:00
9:15 PM,62.6,55.4,77,30.16,10.0,ENE,4.6,-,N/A,,Clear,70,2013-07-27 02:15:00
9:35 PM,62.6,53.6,72,30.17,10.0,ENE,6.9,-,N/A,,Clear,60,2013-07-27 02:35:00
9:55 PM,60.8,53.6,77,30.18,10.0,NE,5.8,-,N/A,,Clear,40,2013-07-27 02:55:00
10:15 PM,62.6,53.6,72,30.18,10.0,NE,5.8,-,N/A,,Clear,40,2013-07-27 03:15:00
10:35 PM,59.0,53.6,82,30.17,10.0,ENE,5.8,-,N/A,,Clear,60,2013-07-27 03:35:00
10:55 PM,59.0,51.8,77,30.17,10.0,ENE,4.6,-,N/A,,Clear,70,2013-07-27 03:55:00
11:15 PM,59.0,51.8,77,30.17,10.0,ENE,5.8,-,N/A,,Clear,70,2013-07-27 04:15:00
11:35 PM,57.2,53.6,88,30.17,10.0,East,3.5,-,N/A,,Clear,80,2013-07-27 04:35:00
11:55 PM,57.2,53.6,88,30.17,10.0,East,3.5,-,N/A,,Clear,80,2013-07-27 04:55:00